Vilnius, Baltarusija

09:47 PM +03 on balandžio 21, 2018 (GMT +0300)
Vilnius International | | Change Station

Elev 512 ft 54.63 °N, 25.28 °E | Updated 27 minutes ago

Geras oras
Geras oras
54 °F
Feels Like 54 °F
N
9
Vėjas nepastovus Vėjas from Šiaurės vakarų

Šiandien
High -- | Low -- °F
--% Chance of Precip.
Yesterday
High -- | Low -- °F
Precip. -- in
Slėgis 29.86 in
Matomumas -9999.0 mylios
Debesys
Rasos taškas 36 °F
Drėgmė 51%
Krituliai 0.00 in
Sniego dangos storis Not available.
6:00 AM 8:30 PM
Priešpilnis mėnulis, 37% visible
METAR EYVI 211820Z 32008KT CAVOK 12/02 Q1011 NOSIG
Slėgis 29.86 in
Matomumas -9999.0 mylios
Debesys
Rasos taškas 36 °F
Drėgmė 51%
Krituliai 0.00 in
Sniego dangos storis Not available.
6:00 AM 8:30 PM
Priešpilnis mėnulis, 37% visible
METAR EYVI 211820Z 32008KT CAVOK 12/02 Q1011 NOSIG

Get Severe Weather Alerts

Thanks for signing up!

Be on the lookout for a verification email in your inbox.

You'll start receiving the daily forecast at 6 AM.

×

10-Day Weather Forecast

×

Almanac

Astronomija

Apr. 21, 2018 Rise Set
Vietos laikas
Dienos šviesa
Jūrinė diena
Astronominė diena
Mėnulis
Matomos šviesos trukmė
Dienos ilgis
Tomorrow will be .
, % of the Moon is Illuminated

Šiandienos maksimumai

Country Highs Country Lows

Community

WunderPhotos

Category 6

Welcome to Category 6. This is the collective home for Weather Underground's featured writeups by Dr. Jeff Masters (right), Bob Henson (left), Chris Burt, and other regular contributors.

Nearby

Air Quality

  Air Quality AQ Index Pollutant
Not available.

Sniego danga

Station Depth Elevation

Earthquake Activity

Miestas Distance Mag. Time & Date
Minimum magnitude displayed is 2.5.

Coastal Water Temperatures

Vieta Temperatūra

Stations

Nearby Weather Stations

Station Location Temp Šaltas vėjas Rasos taškas Drėgmė Vėjas Precip. Elev Duomenys papildyti Type